When you browse on this site, cookies collect data to enhance your experience and personalize the content and advertising you see.
Visit our Privacy Policy to learn more. By continuing to use the site, you agree to this use of cookies and data.
  • In United Kingdom
  • List of Countries
  • For 7 days
  • Water Temperature
  • Satellite Maps
  • Weather Map
  • Weather Widgets
  • user-avatar
    Login

    Hourly Weather Kitzbuhel

    Today, 17 February, Sunday

    Time Temperature Precipitation Wind Pressure Humidity
    00:00 +1°C° 0 mm 2 mps 683 mmHg 50%
    01:00 +1°C° 0 mm 2 mps 683 mmHg 49%
    02:00 +1°C° 0 mm 2 mps 683 mmHg 49%
    03:00 +1°C° 0 mm 2 mps 683 mmHg 49%
    04:00 +1°C° 0 mm 2 mps 683 mmHg 48%
    05:00 +1°C° 0 mm 2 mps 683 mmHg 48%
    06:00 +1°C° 0 mm 2 mps 683 mmHg 48%
    07:00 +1°C° 0 mm 2 mps 683 mmHg 47%
    08:00 +2°C° 0 mm 2 mps 683 mmHg 55%
    09:00 +4°C° 0 mm 2 mps 683 mmHg 63%
    10:00 +6°C° 0 mm 2 mps 683 mmHg 70%
    11:00 +7°C° 0 mm 1 mps 682 mmHg 77%
    12:00 +8°C° 0 mm 1 mps 682 mmHg 83%
    13:00 +9°C° 0 mm 1 mps 682 mmHg 89%
    14:00 +9°C° 0 mm 1 mps 682 mmHg 87%
    15:00 +8°C° 0 mm 1 mps 681 mmHg 84%
    16:00 +8°C° 0 mm 1 mps 681 mmHg 82%
    17:00 +6°C° 0 mm 1 mps 681 mmHg 73%
    18:00 +4°C° 0 mm 2 mps 681 mmHg 64%
    19:00 +2°C° 0 mm 2 mps 681 mmHg 56%
    20:00 +2°C° 0 mm 2 mps 681 mmHg 53%
    21:00 +1°C° 0 mm 2 mps 681 mmHg 50%
    22:00 +1°C° 0 mm 2 mps 681 mmHg 47%
    23:00 +1°C° 0 mm 2 mps 681 mmHg 46%

    Tomorrow, 18 February, Monday

    Time Temperature Precipitation Wind Pressure Humidity
    00:00 +1°C° 0 mm 2 mps 681 mmHg 45%
    01:00 +1°C° 0 mm 2 mps 681 mmHg 44%
    02:00 +1°C° 0 mm 2 mps 680 mmHg 44%
    03:00 -1°C° 0 mm 2 mps 680 mmHg 44%
    04:00 -1°C° 0 mm 2 mps 680 mmHg 44%
    05:00 -1°C° 0 mm 2 mps 680 mmHg 44%
    06:00 -1°C° 0 mm 2 mps 680 mmHg 44%
    07:00 -1°C° 0 mm 2 mps 680 mmHg 44%
    08:00 +2°C° 0 mm 2 mps 680 mmHg 52%
    09:00 +3°C° 0 mm 2 mps 680 mmHg 59%
    10:00 +6°C° 0 mm 1 mps 680 mmHg 67%
    11:00 +7°C° 0 mm 1 mps 680 mmHg 72%
    12:00 +8°C° 0 mm 1 mps 679 mmHg 77%
    13:00 +9°C° 0 mm 1 mps 679 mmHg 83%
    14:00 +7°C° 0 mm 0 mps 679 mmHg 84%
    15:00 +7°C° 0 mm 0 mps 678 mmHg 85%
    16:00 +6°C° 0 mm 0 mps 678 mmHg 86%
    17:00 +6°C° 0 mm 1 mps 678 mmHg 81%
    18:00 +4°C° 0 mm 1 mps 678 mmHg 75%
    19:00 +2°C° 0 mm 2 mps 678 mmHg 70%
    20:00 +2°C° 0 mm 2 mps 678 mmHg 66%
    21:00 +1°C° 0 mm 2 mps 678 mmHg 63%
    22:00 +1°C° 0 mm 2 mps 678 mmHg 60%
    23:00 +1°C° 0 mm 2 mps 678 mmHg 58%

    Day after tomorrow, 19 February, Tuesday

    Time Temperature Precipitation Wind Pressure Humidity
    00:00 +1°C° 0 mm 2 mps 678 mmHg 57%
    01:00 +1°C° 0 mm 2 mps 678 mmHg 55%
    02:00 +1°C° 0 mm 2 mps 678 mmHg 56%
    03:00 -1°C° 0 mm 2 mps 678 mmHg 56%
    04:00 -1°C° 0 mm 2 mps 678 mmHg 56%
    05:00 -1°C° 0 mm 2 mps 678 mmHg 57%
    06:00 -1°C° 0 mm 2 mps 678 mmHg 58%
    07:00 -1°C° 0 mm 2 mps 678 mmHg 59%
    08:00 +3°C° 0 mm 1 mps 679 mmHg 65%
    09:00 +4°C° 0 mm 1 mps 679 mmHg 72%
    10:00 +6°C° 0 mm 1 mps 679 mmHg 78%
    11:00 +6°C° 0 mm 1 mps 679 mmHg 78%
    12:00 +7°C° 0 mm 1 mps 679 mmHg 78%
    13:00 +7°C° 0 mm 0 mps 679 mmHg 78%
    14:00 +6°C° 0 mm 0 mps 679 mmHg 80%
    15:00 +6°C° 0 mm 0 mps 678 mmHg 82%
    16:00 +5°C° 0 mm 0 mps 678 mmHg 84%
    17:00 +5°C° 0 mm 1 mps 678 mmHg 83%
    18:00 +3°C° 0 mm 1 mps 679 mmHg 82%
    19:00 +2°C° 0 mm 1 mps 679 mmHg 82%
    20:00 +1°C° 0 mm 1 mps 679 mmHg 81%
    21:00 +1°C° 0 mm 1 mps 679 mmHg 81%
    22:00 +1°C° 0 mm 1 mps 680 mmHg 80%
    23:00 +1°C° 0 mm 1 mps 680 mmHg 79%

    20 February, Wednesday

    Time Temperature Precipitation Wind Pressure Humidity
    00:00 0°C° 0 mm 1 mps 680 mmHg 77%
    01:00 -2°C° 0 mm 2 mps 680 mmHg 76%
    02:00 0°C° 0 mm 1 mps 680 mmHg 74%
    03:00 0°C° 0 mm 1 mps 680 mmHg 72%
    04:00 0°C° 0 mm 1 mps 680 mmHg 70%
    05:00 0°C° 0 mm 1 mps 680 mmHg 70%
    06:00 0°C° 0 mm 1 mps 680 mmHg 69%
    07:00 0°C° 0 mm 1 mps 680 mmHg 68%
    08:00 +2°C° 0 mm 1 mps 681 mmHg 70%
    09:00 +4°C° 0 mm 1 mps 681 mmHg 71%
    10:00 +4°C° 0 mm 0 mps 682 mmHg 72%
    11:00 +5°C° 0 mm 0 mps 681 mmHg 73%
    12:00 +6°C° 0 mm 0 mps 681 mmHg 74%
    13:00 +7°C° 0 mm 0 mps 681 mmHg 76%
    14:00 +6°C° 0 mm 0 mps 681 mmHg 79%
    15:00 +6°C° 0 mm 0 mps 681 mmHg 82%
    16:00 +5°C° 0 mm 0 mps 681 mmHg 85%
    17:00 +5°C° 0 mm 1 mps 681 mmHg 85%
    18:00 +4°C° 0 mm 1 mps 681 mmHg 85%
    19:00 +2°C° 0 mm 1 mps 681 mmHg 85%
    20:00 +2°C° 0 mm 1 mps 681 mmHg 83%
    21:00 +2°C° 0 mm 1 mps 682 mmHg 81%
    22:00 +2°C° 0 mm 1 mps 682 mmHg 79%
    23:00 +1°C° 0 mm 1 mps 682 mmHg 77%

    21 February, Thursday

    Time Temperature Precipitation Wind Pressure Humidity
    00:00 +1°C° 0 mm 1 mps 682 mmHg 75%
    01:00 +1°C° 0 mm 1 mps 682 mmHg 73%
    02:00 +1°C° 0 mm 1 mps 682 mmHg 72%
    03:00 +1°C° 0 mm 1 mps 682 mmHg 71%
    04:00 +1°C° 0 mm 1 mps 682 mmHg 70%
    05:00 +1°C° 0 mm 1 mps 682 mmHg 70%
    06:00 +1°C° 0 mm 1 mps 682 mmHg 69%
    07:00 +1°C° 0 mm 1 mps 682 mmHg 69%
    08:00 +3°C° 0 mm 1 mps 683 mmHg 70%
    09:00 +5°C° 0 mm 1 mps 683 mmHg 72%
    10:00 +5°C° 0 mm 0 mps 683 mmHg 73%
    11:00 +6°C° 0 mm 0 mps 683 mmHg 73%
    12:00 +7°C° 0 mm 1 mps 683 mmHg 72%
    13:00 +8°C° 0 mm 1 mps 683 mmHg 72%
    14:00 +8°C° 0 mm 1 mps 683 mmHg 74%
    15:00 +8°C° 0 mm 1 mps 682 mmHg 76%
    16:00 +7°C° 0 mm 1 mps 682 mmHg 79%
    17:00 +6°C° 0 mm 1 mps 682 mmHg 79%
    18:00 +5°C° 0 mm 1 mps 682 mmHg 80%
    19:00 +3°C° 0 mm 1 mps 683 mmHg 80%
    20:00 +3°C° 0 mm 1 mps 683 mmHg 81%
    21:00 +3°C° 0 mm 1 mps 683 mmHg 82%
    22:00 +3°C° 0 mm 1 mps 683 mmHg 83%
    23:00 +2°C° 0 mm 1 mps 683 mmHg 84%

    22 February, Friday

    Time Temperature Precipitation Wind Pressure Humidity
    00:00 +2°C° 0 mm 1 mps 683 mmHg 85%
    01:00 +2°C° 0 mm 1 mps 684 mmHg 86%
    02:00 +2°C° 0 mm 1 mps 683 mmHg 86%
    03:00 +2°C° 0 mm 1 mps 683 mmHg 85%
    04:00 +2°C° 0 mm 1 mps 683 mmHg 85%
    05:00 +2°C° 0 mm 1 mps 683 mmHg 85%
    06:00 +2°C° 0 mm 1 mps 684 mmHg 84%
    07:00 +2°C° 0 mm 1 mps 684 mmHg 84%
    08:00 +3°C° 0 mm 1 mps 684 mmHg 82%
    09:00 +4°C° 0 mm 1 mps 684 mmHg 81%
    10:00 +5°C° 0 mm 1 mps 685 mmHg 79%
    11:00 +6°C° 0 mm 1 mps 684 mmHg 75%
    12:00 +7°C° 0 mm 1 mps 684 mmHg 72%
    13:00 +6°C° 0 mm 2 mps 684 mmHg 68%
    14:00 +6°C° 0.5 mm 1 mps 684 mmHg 76%
    15:00 +5°C° 0.5 mm 1 mps 684 mmHg 84%
    16:00 +4°C° 0.5 mm 1 mps 684 mmHg 91%
    17:00 +4°C° 0.3 mm 1 mps 684 mmHg 92%
    18:00 +4°C° 0.3 mm 1 mps 684 mmHg 93%
    19:00 +4°C° 0.3 mm 1 mps 685 mmHg 95%
    20:00 +4°C° 0.1 mm 1 mps 685 mmHg 95%
    21:00 +4°C° 0.1 mm 1 mps 685 mmHg 96%
    22:00 +3°C° 0.1 mm 1 mps 685 mmHg 96%
    23:00 +3°C° 0.1 mm 1 mps 685 mmHg 97%
    Show more